Flag for Australia Weather past 2 weeks in Toowoomba, Queensland, Australia

Now
54 °F

Cool.


Feels Like: 53 °F
Forecast: 58 / 83 °F
Wind: 5 mph from East

Location: Oakey Aerodrome

Current Time: Feb 1, 2015 at 6:05:24 AM

Latest Report: Feb 1, 2015 at 4:00 AM


Visibility: N/A

Pressure: 29.69 "Hg

Humidity: 94%

Dew point: 53 °F

Location of ToowoombaLocation

Historic Weather in Toowoomba — Graph

°F

Toowoomba temperature yesterday

Maximum temperature yesterday: 91 °F (at 1:00 PM)
Minimum temperature yesterday: 62 °F (at 4:00 AM)
Average temperature yesterday: 75 °F

Past Weeks' High & Low Weather Summary

 TemperatureHumidityPressure
High97 °F (Jan 18, 3:00 PM)99% (Jan 18, 4:00 AM)29.85 "Hg (Jan 18, 4:00 AM)
Low54 °F (Feb 1, 4:00 AM)14% (Jan 18, 4:00 PM)29.60 "Hg (Jan 27, 4:00 PM)
Average75 °F68%29.73 "Hg
* Reported Jan 17 4:00 AM — Feb 1 4:00 AM, Toowoomba, Weather by CustomWeather, © 2014

Note: Actual official high and low records may vary slightly from our data, if they occured in-between our weather recording intervals... More about our weather records

Advertising

Toowoomba weather history for previous 24 hours

 ConditionsComfort  
Time TempWeatherWind HumidityBarometerVisibility
4:00 AM
Feb 1
54 °FCool.5 mph94%29.69 "HgN/A
3:00 AM55 °FCool.5 mph91%29.68 "HgN/A
1:00 AM59 °FCool.3 mph93%29.70 "HgN/A
12:00 AM59 °FCool.5 mph85%29.72 "HgN/A
10:00 PM
Jan 31
64 °FMild.5 mph77%29.73 "HgN/A
9:00 PM68 °FMild.5 mph59%29.71 "HgN/A
7:00 PM79 °FPleasantly warm.6 mph36%29.67 "HgN/A
6:00 PM88 °FOvercast.13 mph26%29.63 "HgN/A
4:00 PM83 °FWarm.3 mph43%29.63 "HgN/A
3:00 PM85 °FPleasantly warm.15 mph37%29.64 "HgN/A
1:00 PM91 °FHot.17 mph34%29.67 "HgN/A
12:00 PM87 °FOvercast.16 mph38%29.70 "HgN/A
10:00 AM84 °FWarm.13 mph53%29.75 "HgN/A
9:00 AM79 °FOvercast.14 mph61%29.76 "HgN/A
7:00 AM69 °FMild.5 mph85%29.77 "HgN/A
6:00 AM64 °FMild.6 mph96%29.73 "HgN/A
Weather by CustomWeather, © 2014

See weather overviewHow to use our weather pages